Location: Burera
(21.3780°N, 81.9534°E)
Time: 01:12:27
(UTC+00:00)

ADEOS Rocket - Pass Details

Date: 13 August 2020
Orbit: 858 x 1307 km, 98.7° (Epoch: 22 September)

Event Time Altitude Azimuth Distance (km) Brightness Sun altitude
Rises 22:52:43 0° 153° (SSE) 4,106 6.3 -17.8°
Reaches altitude 10° 22:55:21 10° 148° (SSE) 3,190 5.8 -17.3°
Maximum altitude 23:02:33 54° 74° (ENE) 1,527 4.4 -15.7°
Drops below altitude 10° 23:10:04 10° 359° (N) 3,324 6.0 -14.1°
Sets 23:12:51 0° 355° (N) 4,290 6.6 -13.5°
